Year,Month,Day,Hour,Minute,Value (Times are PST for temperature in C)
2014,07,13,00,00,15.00
2014,07,13,00,01,15.10
2014,07,13,00,02,15.10
2014,07,13,00,03,15.10
2014,07,13,00,04,15.10
2014,07,13,00,05,15.10
2014,07,13,00,06,15.10
2014,07,13,00,07,15.10
2014,07,13,00,08,15.10
2014,07,13,00,09,15.10
2014,07,13,00,10,15.10
2014,07,13,00,11,15.10
2014,07,13,00,12,15.20
2014,07,13,00,13,15.20
2014,07,13,00,14,15.20
2014,07,13,00,15,15.20
2014,07,13,00,16,15.20
2014,07,13,00,17,15.10
2014,07,13,00,18,15.10
2014,07,13,00,19,15.10
2014,07,13,00,20,15.10
2014,07,13,00,21,15.10
2014,07,13,00,22,15.10
2014,07,13,00,23,15.10
2014,07,13,00,24,15.10
2014,07,13,00,25,15.10
2014,07,13,00,26,15.10
2014,07,13,00,27,15.10
2014,07,13,00,28,15.10
2014,07,13,00,29,15.10
2014,07,13,00,30,15.10
2014,07,13,00,31,15.10
2014,07,13,00,32,15.10
2014,07,13,00,33,15.10
2014,07,13,00,34,15.10
2014,07,13,00,35,15.10
2014,07,13,00,36,15.10
2014,07,13,00,37,15.10
2014,07,13,00,38,15.10
2014,07,13,00,39,15.10
2014,07,13,00,40,15.10
2014,07,13,00,41,15.10
2014,07,13,00,42,15.10
2014,07,13,00,43,15.10
2014,07,13,00,44,15.10
2014,07,13,00,45,15.10
2014,07,13,00,46,15.10
2014,07,13,00,47,15.10
2014,07,13,00,48,15.10
2014,07,13,00,49,15.10
2014,07,13,00,50,15.10
2014,07,13,00,51,15.10
2014,07,13,00,52,15.20
2014,07,13,00,53,15.20
2014,07,13,00,54,15.20
2014,07,13,00,55,15.20
2014,07,13,00,56,15.20
2014,07,13,00,57,15.20
2014,07,13,00,58,15.20
2014,07,13,00,59,15.20
2014,07,13,01,00,15.20
2014,07,13,01,01,15.20
2014,07,13,01,02,15.20
2014,07,13,01,03,15.20
2014,07,13,01,04,15.20
2014,07,13,01,05,15.30
2014,07,13,01,06,15.30
2014,07,13,01,07,15.30
2014,07,13,01,08,15.30
2014,07,13,01,09,15.30
2014,07,13,01,10,15.30
2014,07,13,01,11,15.30
2014,07,13,01,12,15.30
2014,07,13,01,13,15.30
2014,07,13,01,14,15.30
2014,07,13,01,15,15.30
2014,07,13,01,16,15.30
2014,07,13,01,17,15.30
2014,07,13,01,18,15.30
2014,07,13,01,19,15.30
2014,07,13,01,20,15.40
2014,07,13,01,21,15.40
2014,07,13,01,22,15.40
2014,07,13,01,23,15.40
2014,07,13,01,24,15.40
2014,07,13,01,25,15.40
2014,07,13,01,26,15.40
2014,07,13,01,27,15.30
2014,07,13,01,28,15.30
2014,07,13,01,29,15.30
2014,07,13,01,30,15.30
2014,07,13,01,31,15.30
2014,07,13,01,32,15.30
2014,07,13,01,33,15.30
2014,07,13,01,34,15.30
2014,07,13,01,35,15.30
2014,07,13,01,36,15.30
2014,07,13,01,37,15.30
2014,07,13,01,38,15.30
2014,07,13,01,39,15.30
2014,07,13,01,40,15.30
2014,07,13,01,41,15.30
2014,07,13,01,42,15.30
2014,07,13,01,43,15.30
2014,07,13,01,44,15.30
2014,07,13,01,45,15.30
2014,07,13,01,46,15.30
2014,07,13,01,47,15.30
2014,07,13,01,48,15.30
2014,07,13,01,49,15.30
2014,07,13,01,50,15.30
2014,07,13,01,51,15.30
2014,07,13,01,52,15.30
2014,07,13,01,53,15.30
2014,07,13,01,54,15.30
2014,07,13,01,55,15.30
2014,07,13,01,56,15.20
2014,07,13,01,57,15.20
2014,07,13,01,58,15.20
2014,07,13,01,59,15.20
2014,07,13,02,00,15.20
2014,07,13,02,01,15.20
2014,07,13,02,02,15.20
2014,07,13,02,03,15.10
2014,07,13,02,04,15.10
2014,07,13,02,05,15.00
2014,07,13,02,06,15.00
2014,07,13,02,07,14.90
2014,07,13,02,08,14.80
2014,07,13,02,09,14.80
2014,07,13,02,10,14.70
2014,07,13,02,11,14.70
2014,07,13,02,12,14.70
2014,07,13,02,13,14.60
2014,07,13,02,14,14.60
2014,07,13,02,15,14.60
2014,07,13,02,16,14.60
2014,07,13,02,17,14.60
2014,07,13,02,18,14.60
2014,07,13,02,19,14.70
2014,07,13,02,20,14.70
2014,07,13,02,21,14.70
2014,07,13,02,22,14.70
2014,07,13,02,23,14.70
2014,07,13,02,24,14.70
2014,07,13,02,25,14.80
2014,07,13,02,26,14.80
2014,07,13,02,27,14.80
2014,07,13,02,28,14.80
2014,07,13,02,29,14.80
2014,07,13,02,30,14.80
2014,07,13,02,31,14.80
2014,07,13,02,32,14.80
2014,07,13,02,33,14.90
2014,07,13,02,34,14.90
2014,07,13,02,35,14.90
2014,07,13,02,36,14.90
2014,07,13,02,37,14.90
2014,07,13,02,38,14.90
2014,07,13,02,39,14.90
2014,07,13,02,40,14.90
2014,07,13,02,41,15.00
2014,07,13,02,42,14.90
2014,07,13,02,43,14.90
2014,07,13,02,44,14.90
2014,07,13,02,45,14.90
2014,07,13,02,46,14.90
2014,07,13,02,47,14.90
2014,07,13,02,48,14.80
2014,07,13,02,49,14.80
2014,07,13,02,50,14.80
2014,07,13,02,51,14.80
2014,07,13,02,52,14.80
2014,07,13,02,53,14.80
2014,07,13,02,54,14.80
2014,07,13,02,55,14.70
2014,07,13,02,56,14.70
2014,07,13,02,57,14.70
2014,07,13,02,58,14.70
2014,07,13,02,59,14.70
2014,07,13,03,00,14.60
2014,07,13,03,01,14.60
2014,07,13,03,02,14.60
2014,07,13,03,03,14.50
2014,07,13,03,04,14.50
2014,07,13,03,05,14.50
2014,07,13,03,06,14.50
2014,07,13,03,07,14.50
2014,07,13,03,08,14.50
2014,07,13,03,09,14.40
2014,07,13,03,10,14.40
2014,07,13,03,11,14.40
2014,07,13,03,12,14.40
2014,07,13,03,13,14.40
2014,07,13,03,14,14.40
2014,07,13,03,15,14.30
2014,07,13,03,16,14.30
2014,07,13,03,17,14.30
2014,07,13,03,18,14.30
2014,07,13,03,19,14.30
2014,07,13,03,20,14.30
2014,07,13,03,21,14.30
2014,07,13,03,22,14.30
2014,07,13,03,23,14.30
2014,07,13,03,24,14.20
2014,07,13,03,25,14.20
2014,07,13,03,26,14.20
2014,07,13,03,27,14.20
2014,07,13,03,28,14.20
2014,07,13,03,29,14.20
2014,07,13,03,30,14.20
2014,07,13,03,31,14.20
2014,07,13,03,32,14.10
2014,07,13,03,33,14.10
2014,07,13,03,34,14.10
2014,07,13,03,35,14.10
2014,07,13,03,36,14.10
2014,07,13,03,37,14.10
2014,07,13,03,38,14.10
2014,07,13,03,39,14.10
2014,07,13,03,40,14.10
2014,07,13,03,41,14.00
2014,07,13,03,42,14.00
2014,07,13,03,43,14.00
2014,07,13,03,44,14.00
2014,07,13,03,45,14.00
2014,07,13,03,46,14.00
2014,07,13,03,47,14.00
2014,07,13,03,48,14.00
2014,07,13,03,49,14.00
2014,07,13,03,50,14.00
2014,07,13,03,51,14.00
2014,07,13,03,52,14.00
2014,07,13,03,53,14.00
2014,07,13,03,54,14.00
2014,07,13,03,55,14.00
2014,07,13,03,56,13.90
2014,07,13,03,57,13.90
2014,07,13,03,58,13.90
2014,07,13,03,59,13.90
2014,07,13,04,00,13.90
2014,07,13,04,01,13.80
2014,07,13,04,02,13.80
2014,07,13,04,03,13.80
2014,07,13,04,04,13.80
2014,07,13,04,05,13.80
2014,07,13,04,06,13.80
2014,07,13,04,07,13.80
2014,07,13,04,08,13.70
2014,07,13,04,09,13.70
2014,07,13,04,10,13.70
2014,07,13,04,11,13.70
2014,07,13,04,12,13.70
2014,07,13,04,13,13.70
2014,07,13,04,14,13.70
2014,07,13,04,15,13.70
2014,07,13,04,16,13.70
2014,07,13,04,17,13.70
2014,07,13,04,18,13.70
2014,07,13,04,19,13.70
2014,07,13,04,20,13.70
2014,07,13,04,21,13.70
2014,07,13,04,22,13.70
2014,07,13,04,23,13.70
2014,07,13,04,24,13.70
2014,07,13,04,25,13.70
2014,07,13,04,26,13.70
2014,07,13,04,27,13.70
2014,07,13,04,28,13.70
2014,07,13,04,29,13.70
2014,07,13,04,30,13.70
2014,07,13,04,31,13.70
2014,07,13,04,32,13.70
2014,07,13,04,33,13.70
2014,07,13,04,34,13.70
2014,07,13,04,35,13.70
2014,07,13,04,36,13.70
2014,07,13,04,37,13.70
2014,07,13,04,38,13.70
2014,07,13,04,39,13.70
2014,07,13,04,40,13.70
2014,07,13,04,41,13.70
2014,07,13,04,42,13.70
2014,07,13,04,43,13.70
2014,07,13,04,44,13.70
2014,07,13,04,45,13.70
2014,07,13,04,46,13.70
2014,07,13,04,47,13.70
2014,07,13,04,48,13.70
2014,07,13,04,49,13.70
2014,07,13,04,50,13.70
2014,07,13,04,51,13.70
2014,07,13,04,52,13.70
2014,07,13,04,53,13.70
2014,07,13,04,54,13.70
2014,07,13,04,55,13.70
2014,07,13,04,56,13.70
2014,07,13,04,57,13.70
2014,07,13,04,58,13.70
2014,07,13,04,59,13.70
2014,07,13,05,00,13.70
2014,07,13,05,01,13.70
2014,07,13,05,02,13.70
2014,07,13,05,03,13.70
2014,07,13,05,04,13.70
2014,07,13,05,05,13.70
2014,07,13,05,06,13.70
2014,07,13,05,07,13.70
2014,07,13,05,08,13.70
2014,07,13,05,09,13.70
2014,07,13,05,10,13.70
2014,07,13,05,11,13.70
2014,07,13,05,12,13.70
2014,07,13,05,13,13.70
2014,07,13,05,14,13.70
2014,07,13,05,15,13.70
2014,07,13,05,16,13.70
2014,07,13,05,17,13.70
2014,07,13,05,18,13.70
2014,07,13,05,19,13.70
2014,07,13,05,20,13.70
2014,07,13,05,21,13.70
2014,07,13,05,22,13.70
2014,07,13,05,23,13.70
2014,07,13,05,24,13.70
2014,07,13,05,25,13.70
2014,07,13,05,26,13.70
2014,07,13,05,27,13.70
2014,07,13,05,28,13.70
2014,07,13,05,29,13.70
2014,07,13,05,30,13.70
2014,07,13,05,31,13.70
2014,07,13,05,32,13.70
2014,07,13,05,33,13.70
2014,07,13,05,34,13.70
2014,07,13,05,35,13.60
2014,07,13,05,36,13.60
2014,07,13,05,37,13.60
2014,07,13,05,38,13.50
2014,07,13,05,39,13.50
2014,07,13,05,40,13.40
2014,07,13,05,41,13.40
2014,07,13,05,42,13.30
2014,07,13,05,43,13.30
2014,07,13,05,44,13.20
2014,07,13,05,45,13.20
2014,07,13,05,46,13.20
2014,07,13,05,47,13.10
2014,07,13,05,48,13.10
2014,07,13,05,49,13.10
2014,07,13,05,50,13.00
2014,07,13,05,51,13.00
2014,07,13,05,52,13.00
2014,07,13,05,53,13.00
2014,07,13,05,54,13.00
2014,07,13,05,55,12.90
2014,07,13,05,56,12.90
2014,07,13,05,57,13.00
2014,07,13,05,58,12.90
2014,07,13,05,59,12.90
2014,07,13,06,00,12.90
2014,07,13,06,01,12.90
2014,07,13,06,02,12.90
2014,07,13,06,03,12.90
2014,07,13,06,04,12.90
2014,07,13,06,05,12.90
2014,07,13,06,06,12.90
2014,07,13,06,07,12.90
2014,07,13,06,08,12.90
2014,07,13,06,09,13.00
2014,07,13,06,10,13.00
2014,07,13,06,11,13.00
2014,07,13,06,12,13.10
2014,07,13,06,13,13.10
2014,07,13,06,14,13.20
2014,07,13,06,15,13.30
2014,07,13,06,16,13.40
2014,07,13,06,17,13.50
2014,07,13,06,18,13.60
2014,07,13,06,19,13.70
2014,07,13,06,20,13.70
2014,07,13,06,21,13.80
2014,07,13,06,22,13.90
2014,07,13,06,23,14.00
2014,07,13,06,24,14.00
2014,07,13,06,25,14.20
2014,07,13,06,26,14.20
2014,07,13,06,27,14.30
2014,07,13,06,28,14.30
2014,07,13,06,29,14.40
2014,07,13,06,30,14.40
2014,07,13,06,31,14.40
2014,07,13,06,32,14.50
2014,07,13,06,33,14.50
2014,07,13,06,34,14.50
2014,07,13,06,35,14.50
2014,07,13,06,36,14.50
2014,07,13,06,37,14.50
2014,07,13,06,38,14.50
2014,07,13,06,39,14.60
2014,07,13,06,40,14.60
2014,07,13,06,41,14.60
2014,07,13,06,42,14.60
2014,07,13,06,43,14.70
2014,07,13,06,44,14.70
2014,07,13,06,45,14.80
2014,07,13,06,46,14.80
2014,07,13,06,47,14.80
2014,07,13,06,48,14.80
2014,07,13,06,49,14.80
2014,07,13,06,50,14.80
2014,07,13,06,51,14.80
2014,07,13,06,52,14.80
2014,07,13,06,53,14.80
2014,07,13,06,54,14.80
2014,07,13,06,55,14.80
2014,07,13,06,56,14.80
2014,07,13,06,57,14.80
2014,07,13,06,58,14.80
2014,07,13,06,59,14.90
2014,07,13,07,00,14.90
2014,07,13,07,01,14.90
2014,07,13,07,02,15.00
2014,07,13,07,03,15.00
2014,07,13,07,04,15.00
2014,07,13,07,05,15.10
2014,07,13,07,06,15.10
2014,07,13,07,07,15.10
2014,07,13,07,08,15.10
2014,07,13,07,09,15.20
2014,07,13,07,10,15.20
2014,07,13,07,11,15.30
2014,07,13,07,12,15.30
2014,07,13,07,13,15.30
2014,07,13,07,14,15.40
2014,07,13,07,15,15.50
2014,07,13,07,16,15.60
2014,07,13,07,17,15.70
2014,07,13,07,18,15.80
2014,07,13,07,19,15.90
2014,07,13,07,20,15.90
2014,07,13,07,21,16.00
2014,07,13,07,22,16.10
2014,07,13,07,23,16.10
2014,07,13,07,24,16.10
2014,07,13,07,25,16.10
2014,07,13,07,26,16.10
2014,07,13,07,27,16.10
2014,07,13,07,28,16.10
2014,07,13,07,29,16.20
2014,07,13,07,30,16.20
2014,07,13,07,31,16.20
2014,07,13,07,32,16.30
2014,07,13,07,33,16.30
2014,07,13,07,34,16.40
2014,07,13,07,35,16.40
2014,07,13,07,36,16.50
2014,07,13,07,37,16.60
2014,07,13,07,38,16.70
2014,07,13,07,39,16.80
2014,07,13,07,40,16.90
2014,07,13,07,41,17.00
2014,07,13,07,42,17.20
2014,07,13,07,43,17.30
2014,07,13,07,44,17.30
2014,07,13,07,45,17.30
2014,07,13,07,46,17.40
2014,07,13,07,47,17.40
2014,07,13,07,48,17.40
2014,07,13,07,49,17.40
2014,07,13,07,50,17.40
2014,07,13,07,51,17.30
2014,07,13,07,52,17.30
2014,07,13,07,53,17.20
2014,07,13,07,54,17.10
2014,07,13,07,55,17.00
2014,07,13,07,56,16.90
2014,07,13,07,57,16.80
2014,07,13,07,58,16.70
2014,07,13,07,59,16.50
2014,07,13,08,00,16.40
2014,07,13,08,01,16.20
2014,07,13,08,02,16.00
2014,07,13,08,03,15.80
2014,07,13,08,04,15.60
2014,07,13,08,05,15.50
2014,07,13,08,06,15.30
2014,07,13,08,07,15.20
2014,07,13,08,08,15.10
2014,07,13,08,09,15.10
2014,07,13,08,10,15.00
2014,07,13,08,11,15.00
2014,07,13,08,12,14.90
2014,07,13,08,13,14.90
2014,07,13,08,14,15.00
2014,07,13,08,15,15.00
2014,07,13,08,16,15.00
2014,07,13,08,17,15.10
2014,07,13,08,18,15.20
2014,07,13,08,19,15.20
2014,07,13,08,20,15.30
2014,07,13,08,21,15.30
2014,07,13,08,22,15.30
2014,07,13,08,23,15.40
2014,07,13,08,24,15.50
2014,07,13,08,25,15.60
2014,07,13,08,26,15.60
2014,07,13,08,27,15.70
2014,07,13,08,28,15.80
2014,07,13,08,29,15.80
2014,07,13,08,30,15.90
2014,07,13,08,31,15.90
2014,07,13,08,32,16.10
2014,07,13,08,33,16.10
2014,07,13,08,34,16.20
2014,07,13,08,35,16.30
2014,07,13,08,36,16.40
2014,07,13,08,37,16.40
2014,07,13,08,38,16.60
2014,07,13,08,39,16.60
2014,07,13,08,40,16.70
2014,07,13,08,41,16.70
2014,07,13,08,42,16.70
2014,07,13,08,43,16.80
2014,07,13,08,44,16.80
2014,07,13,08,45,16.80
2014,07,13,08,46,16.90
2014,07,13,08,47,16.90
2014,07,13,08,48,16.90
2014,07,13,08,49,16.80
2014,07,13,08,50,16.80
2014,07,13,08,51,16.80
2014,07,13,08,52,16.80
2014,07,13,08,53,16.80
2014,07,13,08,54,16.80
2014,07,13,08,55,16.80
2014,07,13,08,56,16.80
2014,07,13,08,57,16.80
2014,07,13,08,58,16.80
2014,07,13,08,59,16.80
2014,07,13,09,00,16.80
2014,07,13,09,01,16.80
2014,07,13,09,02,16.80
2014,07,13,09,03,16.90
2014,07,13,09,04,16.90
2014,07,13,09,05,17.00
2014,07,13,09,06,17.00
2014,07,13,09,07,17.00
2014,07,13,09,08,17.00
2014,07,13,09,09,17.00
2014,07,13,09,10,17.10
2014,07,13,09,11,17.10
2014,07,13,09,12,17.10
2014,07,13,09,13,17.20
2014,07,13,09,14,17.30
2014,07,13,09,15,17.30
2014,07,13,09,16,17.30
2014,07,13,09,17,17.30
2014,07,13,09,18,17.30
2014,07,13,09,19,17.30
2014,07,13,09,20,17.30
2014,07,13,09,21,17.30
2014,07,13,09,22,17.30
2014,07,13,09,23,17.20
2014,07,13,09,24,16.90
2014,07,13,09,25,16.80
2014,07,13,09,26,16.80
2014,07,13,09,27,16.70
2014,07,13,09,28,16.60
2014,07,13,09,29,16.50
2014,07,13,09,30,16.40
2014,07,13,09,31,16.40
2014,07,13,09,32,16.40
2014,07,13,09,33,16.40
2014,07,13,09,34,16.30
2014,07,13,09,35,16.30
2014,07,13,09,36,16.20
2014,07,13,09,37,16.20
2014,07,13,09,38,16.20
2014,07,13,09,39,16.10
2014,07,13,09,40,16.10
2014,07,13,09,41,16.10
2014,07,13,09,42,16.10
2014,07,13,09,43,16.10
2014,07,13,09,44,16.10
2014,07,13,09,45,16.10
2014,07,13,09,46,16.10
2014,07,13,09,47,16.10
2014,07,13,09,48,16.10
2014,07,13,09,49,16.10
2014,07,13,09,50,16.10
2014,07,13,09,51,16.00
2014,07,13,09,52,15.90
2014,07,13,09,53,15.80
2014,07,13,09,54,15.80
2014,07,13,09,55,15.80
2014,07,13,09,56,15.80
2014,07,13,09,57,15.80
2014,07,13,09,58,15.70
2014,07,13,09,59,15.70
2014,07,13,10,00,15.70
2014,07,13,10,01,15.70
2014,07,13,10,02,15.80
2014,07,13,10,03,15.80
2014,07,13,10,04,15.80
2014,07,13,10,05,15.80
2014,07,13,10,06,15.80
2014,07,13,10,07,15.80
2014,07,13,10,08,15.80
2014,07,13,10,09,15.80
2014,07,13,10,10,15.80
2014,07,13,10,11,15.90
2014,07,13,10,12,15.90
2014,07,13,10,13,15.80
2014,07,13,10,14,15.80
2014,07,13,10,15,15.70
2014,07,13,10,16,15.60
2014,07,13,10,17,15.50
2014,07,13,10,18,15.50
2014,07,13,10,19,15.50
2014,07,13,10,20,15.50
2014,07,13,10,21,15.40
2014,07,13,10,22,15.40
2014,07,13,10,23,15.30
2014,07,13,10,24,15.30
2014,07,13,10,25,15.40
2014,07,13,10,26,15.50
2014,07,13,10,27,15.60
2014,07,13,10,28,15.70
2014,07,13,10,29,15.80
2014,07,13,10,30,15.90
2014,07,13,10,31,15.90
2014,07,13,10,32,15.90
2014,07,13,10,33,15.90
2014,07,13,10,34,16.00
2014,07,13,10,35,16.10
2014,07,13,10,36,16.20
2014,07,13,10,37,16.40
2014,07,13,10,38,16.60
2014,07,13,10,39,16.80
2014,07,13,10,40,16.90
2014,07,13,10,41,17.00
2014,07,13,10,42,17.10
2014,07,13,10,43,17.10
2014,07,13,10,44,17.10
2014,07,13,10,45,17.10
2014,07,13,10,46,17.20
2014,07,13,10,47,17.20
2014,07,13,10,48,17.30
2014,07,13,10,49,17.30
2014,07,13,10,50,17.40
2014,07,13,10,51,17.40
2014,07,13,10,52,17.30
2014,07,13,10,53,17.30
2014,07,13,10,54,17.20
2014,07,13,10,55,17.10
2014,07,13,10,56,17.20
2014,07,13,10,57,17.20
2014,07,13,10,58,17.30
2014,07,13,10,59,17.30
2014,07,13,11,00,17.30
2014,07,13,11,01,17.30
2014,07,13,11,02,17.40
2014,07,13,11,03,17.50
2014,07,13,11,04,17.60
2014,07,13,11,05,17.60
2014,07,13,11,06,17.70
2014,07,13,11,07,17.80
2014,07,13,11,08,17.80
2014,07,13,11,09,17.90
2014,07,13,11,10,18.00
2014,07,13,11,11,18.10
2014,07,13,11,12,18.30
2014,07,13,11,13,18.40
2014,07,13,11,14,18.50
2014,07,13,11,15,18.60
2014,07,13,11,16,18.70
2014,07,13,11,17,18.70
2014,07,13,11,18,18.80
2014,07,13,11,19,19.00
2014,07,13,11,20,19.10
2014,07,13,11,21,19.30
2014,07,13,11,22,19.40
2014,07,13,11,23,19.50
2014,07,13,11,24,19.50
2014,07,13,11,25,19.60
2014,07,13,11,26,19.60
2014,07,13,11,27,19.60
2014,07,13,11,28,19.50
2014,07,13,11,29,19.50
2014,07,13,11,30,19.50
2014,07,13,11,31,19.50
2014,07,13,11,32,19.60
2014,07,13,11,33,19.70
2014,07,13,11,34,19.70
2014,07,13,11,35,19.70
2014,07,13,11,36,19.70
2014,07,13,11,37,19.70
2014,07,13,11,38,19.60
2014,07,13,11,39,19.60
2014,07,13,11,40,19.50
2014,07,13,11,41,19.50
2014,07,13,11,42,19.40
2014,07,13,11,43,19.40
2014,07,13,11,44,19.30
2014,07,13,11,45,19.20
2014,07,13,11,46,19.20
2014,07,13,11,47,19.20
2014,07,13,11,48,19.30
2014,07,13,11,49,19.30
2014,07,13,11,50,19.40
2014,07,13,11,51,19.30
2014,07,13,11,52,19.20
2014,07,13,11,53,19.00
2014,07,13,11,54,18.90
2014,07,13,11,55,18.90
2014,07,13,11,56,18.80
2014,07,13,11,57,18.70
2014,07,13,11,58,18.60
2014,07,13,11,59,18.60
2014,07,13,12,00,18.60
2014,07,13,12,01,18.60
2014,07,13,12,02,18.60
2014,07,13,12,03,18.70
2014,07,13,12,04,18.80
2014,07,13,12,05,19.00
2014,07,13,12,06,19.10
2014,07,13,12,07,19.30
2014,07,13,12,08,19.40
2014,07,13,12,09,19.60
2014,07,13,12,10,19.70
2014,07,13,12,11,19.80
2014,07,13,12,12,20.10
2014,07,13,12,13,20.30
2014,07,13,12,14,20.50
2014,07,13,12,15,20.80
2014,07,13,12,16,21.00
2014,07,13,12,17,21.10
2014,07,13,12,18,21.20
2014,07,13,12,19,21.30
2014,07,13,12,20,21.60
2014,07,13,12,21,21.90
2014,07,13,12,22,22.20
2014,07,13,12,23,22.50
2014,07,13,12,24,22.60
2014,07,13,12,25,22.70
2014,07,13,12,26,22.80
2014,07,13,12,27,22.90
2014,07,13,12,28,22.90
2014,07,13,12,29,22.90
2014,07,13,12,30,22.90
2014,07,13,12,31,23.00
2014,07,13,12,32,23.10
2014,07,13,12,33,23.10
2014,07,13,12,34,23.20
2014,07,13,12,35,23.30
2014,07,13,12,36,23.30
2014,07,13,12,37,23.30
2014,07,13,12,38,23.20
2014,07,13,12,39,23.20
2014,07,13,12,40,23.30
2014,07,13,12,41,23.30
2014,07,13,12,42,23.50
2014,07,13,12,43,23.60
2014,07,13,12,44,23.50
2014,07,13,12,45,23.40
2014,07,13,12,46,23.50
2014,07,13,12,47,23.60
2014,07,13,12,48,23.60
2014,07,13,12,49,23.70
2014,07,13,12,50,23.70
2014,07,13,12,51,23.70
2014,07,13,12,52,23.70
2014,07,13,12,53,23.70
2014,07,13,12,54,23.70
2014,07,13,12,55,23.70
2014,07,13,12,56,23.80
2014,07,13,12,57,23.90
2014,07,13,12,58,23.90
2014,07,13,12,59,24.10
2014,07,13,13,00,24.10
2014,07,13,13,01,24.10
2014,07,13,13,02,24.00
2014,07,13,13,03,24.00
2014,07,13,13,04,23.90
2014,07,13,13,05,24.10
2014,07,13,13,06,24.10
2014,07,13,13,07,24.20
2014,07,13,13,08,24.30
2014,07,13,13,09,24.40
2014,07,13,13,10,24.50
2014,07,13,13,11,24.60
2014,07,13,13,12,24.60
2014,07,13,13,13,24.60
2014,07,13,13,14,24.60
2014,07,13,13,15,24.70
2014,07,13,13,16,24.70
2014,07,13,13,17,24.70
2014,07,13,13,18,24.70
2014,07,13,13,19,24.70
2014,07,13,13,20,24.70
2014,07,13,13,21,24.70
2014,07,13,13,22,24.70
2014,07,13,13,23,24.60
2014,07,13,13,24,24.50
2014,07,13,13,25,24.40
2014,07,13,13,26,24.20
2014,07,13,13,27,24.00
2014,07,13,13,28,23.90
2014,07,13,13,29,23.90
2014,07,13,13,30,23.90
2014,07,13,13,31,23.90
2014,07,13,13,32,23.80
2014,07,13,13,33,23.70
2014,07,13,13,34,23.70
2014,07,13,13,35,23.70
2014,07,13,13,36,23.70
2014,07,13,13,37,23.80
2014,07,13,13,38,24.10
2014,07,13,13,39,24.10
2014,07,13,13,40,24.00
2014,07,13,13,41,23.90
2014,07,13,13,42,23.80
2014,07,13,13,43,23.70
2014,07,13,13,44,23.60
2014,07,13,13,45,23.50
2014,07,13,13,46,23.40
2014,07,13,13,47,23.30
2014,07,13,13,48,23.20
2014,07,13,13,49,23.10
2014,07,13,13,50,22.90
2014,07,13,13,51,22.60
2014,07,13,13,52,22.30
2014,07,13,13,53,22.10
2014,07,13,13,54,22.00
2014,07,13,13,55,21.90
2014,07,13,13,56,21.70
2014,07,13,13,57,21.50
2014,07,13,13,58,21.30
2014,07,13,13,59,21.30
2014,07,13,14,00,21.20
2014,07,13,14,01,21.00
2014,07,13,14,02,20.80
2014,07,13,14,03,20.80
2014,07,13,14,04,20.80
2014,07,13,14,05,20.80
2014,07,13,14,06,20.70
2014,07,13,14,07,20.60
2014,07,13,14,08,20.70
2014,07,13,14,09,20.80
2014,07,13,14,10,20.90
2014,07,13,14,11,20.80
2014,07,13,14,12,20.80
2014,07,13,14,13,20.90
2014,07,13,14,14,21.10
2014,07,13,14,15,21.20
2014,07,13,14,16,21.30
2014,07,13,14,17,21.50
2014,07,13,14,18,21.60
2014,07,13,14,19,21.60
2014,07,13,14,20,21.70
2014,07,13,14,21,21.70
2014,07,13,14,22,21.70
2014,07,13,14,23,21.90
2014,07,13,14,24,22.00
2014,07,13,14,25,22.10
2014,07,13,14,26,22.10
2014,07,13,14,27,22.10
2014,07,13,14,28,22.10
2014,07,13,14,29,22.20
2014,07,13,14,30,22.30
2014,07,13,14,31,22.40
2014,07,13,14,32,22.40
2014,07,13,14,33,22.50
2014,07,13,14,34,22.60
2014,07,13,14,35,22.70
2014,07,13,14,36,22.90
2014,07,13,14,37,23.00
2014,07,13,14,38,23.10
2014,07,13,14,39,23.30
2014,07,13,14,40,23.30
2014,07,13,14,41,23.20
2014,07,13,14,42,23.20
2014,07,13,14,43,23.20
2014,07,13,14,44,23.30
2014,07,13,14,45,23.40
2014,07,13,14,46,23.50
2014,07,13,14,47,23.70
2014,07,13,14,48,23.90
2014,07,13,14,49,24.00
2014,07,13,14,50,24.10
2014,07,13,14,51,24.00
2014,07,13,14,52,23.90
2014,07,13,14,53,23.90
2014,07,13,14,54,23.80
2014,07,13,14,55,23.70
2014,07,13,14,56,23.70
2014,07,13,14,57,23.60
2014,07,13,14,58,23.40
2014,07,13,14,59,23.40
2014,07,13,15,00,23.20
2014,07,13,15,01,23.00
2014,07,13,15,02,22.90
2014,07,13,15,03,22.80
2014,07,13,15,04,22.80
2014,07,13,15,05,22.80
2014,07,13,15,06,22.80
2014,07,13,15,07,22.70
2014,07,13,15,08,22.60
2014,07,13,15,09,22.70
2014,07,13,15,10,22.80
2014,07,13,15,11,22.80
2014,07,13,15,12,22.90
2014,07,13,15,13,22.80
2014,07,13,15,14,22.70
2014,07,13,15,15,22.60
2014,07,13,15,16,22.40
2014,07,13,15,17,22.30
2014,07,13,15,18,22.20
2014,07,13,15,19,22.10
2014,07,13,15,20,22.10
2014,07,13,15,21,22.00
2014,07,13,15,22,22.00
2014,07,13,15,23,21.90
2014,07,13,15,24,22.00
2014,07,13,15,25,22.10
2014,07,13,15,26,22.10
2014,07,13,15,27,22.20
2014,07,13,15,28,22.20
2014,07,13,15,29,22.30
2014,07,13,15,30,22.40
2014,07,13,15,31,22.50
2014,07,13,15,32,22.60
2014,07,13,15,33,22.70
2014,07,13,15,34,22.90
2014,07,13,15,35,23.00
2014,07,13,15,36,23.20
2014,07,13,15,37,23.30
2014,07,13,15,38,23.50
2014,07,13,15,39,23.70
2014,07,13,15,40,23.80
2014,07,13,15,41,24.00
2014,07,13,15,42,24.10
2014,07,13,15,43,24.30
2014,07,13,15,44,24.50
2014,07,13,15,45,24.60
2014,07,13,15,46,24.60
2014,07,13,15,47,24.60
2014,07,13,15,48,24.60
2014,07,13,15,49,24.60
2014,07,13,15,50,24.60
2014,07,13,15,51,24.60
2014,07,13,15,52,24.60
2014,07,13,15,53,24.70
2014,07,13,15,54,24.80
2014,07,13,15,55,24.80
2014,07,13,15,56,24.80
2014,07,13,15,57,24.80
2014,07,13,15,58,24.70
2014,07,13,15,59,24.50
2014,07,13,16,00,24.30
2014,07,13,16,01,24.00
2014,07,13,16,02,23.80
2014,07,13,16,03,23.60
2014,07,13,16,04,23.50
2014,07,13,16,05,23.30
2014,07,13,16,06,23.30
2014,07,13,16,07,23.20
2014,07,13,16,08,23.30
2014,07,13,16,09,23.30
2014,07,13,16,10,23.40
2014,07,13,16,11,23.50
2014,07,13,16,12,23.70
2014,07,13,16,13,23.70
2014,07,13,16,14,23.80
2014,07,13,16,15,23.80
2014,07,13,16,16,23.80
2014,07,13,16,17,23.70
2014,07,13,16,18,23.70
2014,07,13,16,19,23.70
2014,07,13,16,20,23.70
2014,07,13,16,21,23.70
2014,07,13,16,22,23.70
2014,07,13,16,23,23.70
2014,07,13,16,24,23.60
2014,07,13,16,25,23.60
2014,07,13,16,26,23.50
2014,07,13,16,27,23.40
2014,07,13,16,28,23.40
2014,07,13,16,29,23.40
2014,07,13,16,30,23.30
2014,07,13,16,31,23.30
2014,07,13,16,32,23.40
2014,07,13,16,33,23.50
2014,07,13,16,34,23.70
2014,07,13,16,35,23.80
2014,07,13,16,36,24.00
2014,07,13,16,37,24.20
2014,07,13,16,38,24.40
2014,07,13,16,39,24.50
2014,07,13,16,40,24.50
2014,07,13,16,41,24.60
2014,07,13,16,42,24.70
2014,07,13,16,43,24.80
2014,07,13,16,44,24.90
2014,07,13,16,45,25.00
2014,07,13,16,46,25.20
2014,07,13,16,47,25.10
2014,07,13,16,48,25.00
2014,07,13,16,49,24.90
2014,07,13,16,50,24.80
2014,07,13,16,51,24.60
2014,07,13,16,52,24.30
2014,07,13,16,53,24.10
2014,07,13,16,54,23.90
2014,07,13,16,55,23.70
2014,07,13,16,56,23.70
2014,07,13,16,57,23.60
2014,07,13,16,58,23.60
2014,07,13,16,59,23.70
2014,07,13,17,00,23.80
2014,07,13,17,01,23.90
2014,07,13,17,02,24.10
2014,07,13,17,03,24.10
2014,07,13,17,04,24.10
2014,07,13,17,05,24.20
2014,07,13,17,06,24.20
2014,07,13,17,07,24.20
2014,07,13,17,08,24.20
2014,07,13,17,09,24.20
2014,07,13,17,10,24.30
2014,07,13,17,11,24.30
2014,07,13,17,12,24.40
2014,07,13,17,13,24.40
2014,07,13,17,14,24.50
2014,07,13,17,15,24.50
2014,07,13,17,16,24.50
2014,07,13,17,17,24.50
2014,07,13,17,18,24.50
2014,07,13,17,19,24.40